User: anonymous   Login
Location: Unspecified
(0.0000°N, 0.0000°E)
Time: 21:37:45
(UTC+01:00)
Language:

Cosmos 1437 - Orbit

View from above orbital plane
View from above orbital plane
View from above satellite
View from above satellite

Ground track
Ground track

The orbit data is extracted from the following two-line orbital elements,

1 13770U 83003A   18019.82573832  .00004547  00000-0  69184-4 0  9991
2 13770  81.1547 241.8906 0005230 207.0054 153.0924 15.54241631920146
Epoch (UTC): 19 January 2018 19:49:03
Eccentricity: 0.0005230
inclination: 81.1547°
perigee height: 401 km
apogee height: 408 km
right ascension of ascending node: 241.8906°
argument of perigee: 207.0054°
revolutions per day: 15.54241631
mean anomaly at epoch: 153.0924°
orbit number at epoch: 92014

The dashed part of the orbit path shows where the satellite is in the earth's shadow,  

DLR